Hourly Data Report for August 01, 2021

WIARTON A
ONTARIO
Current Station Operator: NAVCAN

44°44'39.000" N
81°06'31.000" W
221.90 m
6119499
71633
YVV

Download Data

Hourly Data (August 2021)
Hourly Data Report for August 1, 2021
TIME
LST
Temp Definition
°C
Dew Point Definition
°C
Rel Hum Definition
%
Precip. Amount Definition
mm

Wind Dir Definition
10's deg

Wind Spd Definition
km/h
Visibility Definition
km
Stn Press Definition
kPa
Hmdx Definition


Wind Chill Definition


Weather Definition


00:00 15.5 15.3 99   31 5 9.7 98.41     Fog
01:00 15.9 15.4 97   32 3 12.9 98.40     Cloudy
02:00 15.7 15.2 97   32 5 16.1 98.41     LegendNANA
03:00 15.3 14.7 96   36 3 16.1 98.43     LegendNANA
04:00 15.2 14.7 97   0 1 16.1 98.43     Cloudy
05:00 14.1 14.1 100   36 1 16.1 98.40     LegendNANA
06:00 15.0 14.8 99   32 4 24.1 98.46     LegendNANA
07:00 15.6 15.0 96   3 6 24.1 98.45     Cloudy
08:00 16.7 14.6 88   4 10 24.1 98.45     LegendNANA
09:00 17.1 14.2 82   4 17 24.1 98.49     LegendNANA
10:00 17.1 13.9 81   4 20 24.1 98.55     Mostly Cloudy
11:00 15.8 14.1 89   7 17 19.3 98.55     Thunderstorms,Rain Showers
12:00 16.4 15.2 93   3 7 24.1 98.60     Rain Showers
13:00 16.9 14.3 84   1 15 24.1 98.65     Mostly Cloudy
14:00 16.3 15.1 92   3 12 19.3 98.69     Rain Showers
15:00 17.1 15.5 91   36 8 24.1 98.73     Rain Showers
16:00 18.5 14.7 78   2 10 24.1 98.76     Mostly Cloudy
17:00 18.4 13.8 75   2 11 24.1 98.80     LegendNANA
18:00 18.8 12.8 68   1 9 24.1 98.82     LegendNANA
19:00 18.1 12.7 70   35 4 24.1 98.87     Mainly Clear
20:00 16.3 14.3 88   30 4 24.1 98.92     LegendNANA
21:00 15.3 14.0 92   21 4 24.1 98.97     LegendNANA
22:00 15.5 13.6 89   36 2 24.1 99.00     Mainly Clear
23:00 13.6 12.8 94   36 2 24.1 99.00     LegendNANA

Notes on Data Quality.

Legend

  • E = Estimated
  • M = Missing
  • NA = Not Available*
  • [empty] = Indicates an unobserved value
Date modified: